When you browse on this site, cookies collect data to enhance your experience and personalize the content and advertising you see.
Visit our Privacy Policy to learn more. By continuing to use the site, you agree to this use of cookies and data.
  • In Sweden
  • List of Countries
  • For 7 days
  • Water Temperature
  • Satellite Maps
  • Weather Map
  • Weather Widgets
  • user-avatar
    Login

    Hourly Weather Put ilicha

    Today, 18 June, Tuesday

    Time Temperature Precipitation Wind Pressure Humidity
    00:00 +17°C° 0 mm 4 mps 741 mmHg 50%
    01:00 +17°C° 0 mm 4 mps 740 mmHg 52%
    02:00 +17°C° 0 mm 4 mps 739 mmHg 54%
    03:00 +16°C° 0 mm 5 mps 739 mmHg 54%
    04:00 +16°C° 0 mm 6 mps 738 mmHg 53%
    05:00 +16°C° 0 mm 7 mps 738 mmHg 53%
    06:00 +17°C° 0 mm 7 mps 738 mmHg 58%
    07:00 +17°C° 0 mm 8 mps 738 mmHg 62%
    08:00 +18°C° 0 mm 9 mps 739 mmHg 67%
    09:00 +18°C° 0 mm 8 mps 739 mmHg 63%
    10:00 +18°C° 0 mm 8 mps 739 mmHg 59%
    11:00 +20°C° 0 mm 8 mps 740 mmHg 56%
    12:00 +20°C° 0.1 mm 8 mps 740 mmHg 53%
    13:00 +20°C° 0.1 mm 8 mps 740 mmHg 50%
    14:00 +21°C° 0.1 mm 8 mps 740 mmHg 48%
    15:00 +20°C° 0.1 mm 7 mps 741 mmHg 48%
    16:00 +20°C° 0.1 mm 6 mps 742 mmHg 48%
    17:00 +19°C° 0.1 mm 6 mps 742 mmHg 48%
    18:00 +17°C° 0 mm 5 mps 743 mmHg 51%
    19:00 +17°C° 0 mm 4 mps 743 mmHg 53%
    20:00 +15°C° 0 mm 4 mps 743 mmHg 55%
    21:00 +14°C° 0 mm 3 mps 744 mmHg 56%
    22:00 +13°C° 0 mm 3 mps 744 mmHg 57%
    23:00 +14°C° 0 mm 2 mps 744 mmHg 59%

    Tomorrow, 19 June, Wednesday

    Time Temperature Precipitation Wind Pressure Humidity
    00:00 +13°C° 0 mm 2 mps 744 mmHg 60%
    01:00 +13°C° 0 mm 1 mps 744 mmHg 61%
    02:00 +13°C° 0 mm 1 mps 745 mmHg 61%
    03:00 +13°C° 0 mm 2 mps 745 mmHg 62%
    04:00 +13°C° 0 mm 2 mps 745 mmHg 62%
    05:00 +13°C° 0 mm 3 mps 745 mmHg 62%
    06:00 +14°C° 0 mm 3 mps 745 mmHg 61%
    07:00 +16°C° 0 mm 2 mps 746 mmHg 60%
    08:00 +16°C° 0 mm 2 mps 746 mmHg 60%
    09:00 +18°C° 0 mm 3 mps 746 mmHg 53%
    10:00 +20°C° 0 mm 4 mps 746 mmHg 47%
    11:00 +22°C° 0 mm 5 mps 746 mmHg 41%
    12:00 +22°C° 0 mm 5 mps 745 mmHg 39%
    13:00 +23°C° 0 mm 5 mps 745 mmHg 37%
    14:00 +25°C° 0 mm 5 mps 745 mmHg 36%
    15:00 +23°C° 0 mm 4 mps 745 mmHg 39%
    16:00 +22°C° 0 mm 3 mps 745 mmHg 42%
    17:00 +21°C° 0 mm 3 mps 745 mmHg 46%
    18:00 +20°C° 0 mm 2 mps 745 mmHg 48%
    19:00 +19°C° 0 mm 2 mps 746 mmHg 51%
    20:00 +18°C° 0 mm 2 mps 746 mmHg 54%
    21:00 +18°C° 0 mm 2 mps 746 mmHg 58%
    22:00 +17°C° 0 mm 3 mps 747 mmHg 61%
    23:00 +17°C° 0 mm 3 mps 747 mmHg 65%

    Day after tomorrow, 20 June, Thursday

    Time Temperature Precipitation Wind Pressure Humidity
    00:00 +16°C° 0 mm 3 mps 747 mmHg 72%
    01:00 +14°C° 0 mm 4 mps 747 mmHg 79%
    02:00 +13°C° 0 mm 4 mps 748 mmHg 85%
    03:00 +13°C° 0 mm 4 mps 748 mmHg 85%
    04:00 +13°C° 0 mm 4 mps 748 mmHg 85%
    05:00 +13°C° 0 mm 4 mps 749 mmHg 85%
    06:00 +14°C° 0 mm 3 mps 749 mmHg 75%
    07:00 +17°C° 0 mm 3 mps 750 mmHg 66%
    08:00 +18°C° 0 mm 3 mps 750 mmHg 57%
    09:00 +19°C° 0 mm 3 mps 750 mmHg 51%
    10:00 +20°C° 0 mm 3 mps 750 mmHg 45%
    11:00 +21°C° 0 mm 3 mps 750 mmHg 39%
    12:00 +22°C° 0 mm 3 mps 750 mmHg 37%
    13:00 +22°C° 0 mm 3 mps 750 mmHg 35%
    14:00 +24°C° 0 mm 3 mps 750 mmHg 33%
    15:00 +24°C° 0 mm 3 mps 750 mmHg 35%
    16:00 +24°C° 0 mm 3 mps 750 mmHg 36%
    17:00 +24°C° 0 mm 3 mps 750 mmHg 38%
    18:00 +21°C° 0 mm 2 mps 750 mmHg 44%
    19:00 +20°C° 0 mm 2 mps 750 mmHg 50%
    20:00 +18°C° 0 mm 2 mps 750 mmHg 56%
    21:00 +19°C° 0 mm 1 mps 750 mmHg 57%
    22:00 +18°C° 0 mm 1 mps 750 mmHg 58%
    23:00 +15°C° 0 mm 0 mps 750 mmHg 59%

    21 June, Friday

    Time Temperature Precipitation Wind Pressure Humidity
    00:00 +15°C° 0 mm 0 mps 750 mmHg 60%
    01:00 +14°C° 0 mm 0 mps 750 mmHg 61%
    02:00 +14°C° 0 mm 0 mps 750 mmHg 62%
    03:00 +14°C° 0 mm 0 mps 750 mmHg 62%
    04:00 +16°C° 0 mm 1 mps 750 mmHg 62%
    05:00 +16°C° 0 mm 1 mps 750 mmHg 62%
    06:00 +19°C° 0 mm 1 mps 750 mmHg 57%
    07:00 +20°C° 0 mm 1 mps 750 mmHg 52%
    08:00 +22°C° 0 mm 1 mps 750 mmHg 47%
    09:00 +23°C° 0 mm 1 mps 750 mmHg 43%
    10:00 +24°C° 0 mm 1 mps 750 mmHg 40%
    11:00 +25°C° 0 mm 1 mps 749 mmHg 37%
    12:00 +25°C° 0 mm 1 mps 749 mmHg 35%
    13:00 +26°C° 0 mm 1 mps 749 mmHg 33%
    14:00 +27°C° 0 mm 1 mps 748 mmHg 32%
    15:00 +27°C° 0 mm 1 mps 748 mmHg 31%
    16:00 +27°C° 0 mm 1 mps 748 mmHg 31%
    17:00 +27°C° 0 mm 1 mps 747 mmHg 30%
    18:00 +26°C° 0 mm 1 mps 747 mmHg 35%
    19:00 +24°C° 0 mm 1 mps 747 mmHg 40%
    20:00 +23°C° 0 mm 1 mps 747 mmHg 45%
    21:00 +21°C° 0 mm 2 mps 746 mmHg 45%
    22:00 +20°C° 0 mm 2 mps 746 mmHg 45%
    23:00 +20°C° 0 mm 3 mps 746 mmHg 45%

    22 June, Saturday

    Time Temperature Precipitation Wind Pressure Humidity
    00:00 +20°C° 0 mm 3 mps 746 mmHg 45%
    01:00 +19°C° 0 mm 3 mps 746 mmHg 45%
    02:00 +19°C° 0 mm 3 mps 746 mmHg 44%
    03:00 +19°C° 0 mm 3 mps 745 mmHg 49%
    04:00 +19°C° 0 mm 3 mps 745 mmHg 54%
    05:00 +19°C° 0 mm 4 mps 745 mmHg 59%
    06:00 +20°C° 0.1 mm 4 mps 746 mmHg 60%
    07:00 +21°C° 0.1 mm 5 mps 746 mmHg 61%
    08:00 +22°C° 0.1 mm 6 mps 746 mmHg 62%
    09:00 +23°C° 0.1 mm 6 mps 746 mmHg 56%
    10:00 +23°C° 0.1 mm 7 mps 747 mmHg 51%
    11:00 +24°C° 0.1 mm 7 mps 747 mmHg 45%
    12:00 +24°C° 0 mm 8 mps 747 mmHg 44%
    13:00 +24°C° 0 mm 8 mps 747 mmHg 43%
    14:00 +24°C° 0 mm 9 mps 748 mmHg 42%
    15:00 +23°C° 0 mm 9 mps 748 mmHg 42%
    16:00 +22°C° 0 mm 8 mps 749 mmHg 42%
    17:00 +21°C° 0 mm 8 mps 749 mmHg 41%
    18:00 +18°C° 0 mm 7 mps 750 mmHg 46%
    19:00 +17°C° 0 mm 5 mps 750 mmHg 51%
    20:00 +15°C° 0 mm 4 mps 751 mmHg 56%
    21:00 +14°C° 0 mm 4 mps 751 mmHg 60%
    22:00 +13°C° 0 mm 3 mps 751 mmHg 64%
    23:00 +12°C° 0 mm 3 mps 751 mmHg 68%

    23 June, Sunday

    Time Temperature Precipitation Wind Pressure Humidity
    00:00 +12°C° 0 mm 2 mps 751 mmHg 71%
    01:00 +12°C° 0 mm 2 mps 751 mmHg 74%
    02:00 +11°C° 0 mm 1 mps 751 mmHg 77%
    03:00 +12°C° 0 mm 1 mps 752 mmHg 75%
    04:00 +12°C° 0 mm 1 mps 752 mmHg 73%
    05:00 +13°C° 0 mm 1 mps 752 mmHg 71%
    06:00 +14°C° 0 mm 2 mps 752 mmHg 63%
    07:00 +16°C° 0 mm 3 mps 752 mmHg 55%
    08:00 +17°C° 0 mm 3 mps 752 mmHg 48%
    09:00 +18°C° 0 mm 3 mps 752 mmHg 46%
    10:00 +19°C° 0 mm 4 mps 752 mmHg 44%
    11:00 +20°C° 0 mm 4 mps 752 mmHg 43%
    12:00 +20°C° 0 mm 4 mps 752 mmHg 43%
    13:00 +20°C° 0 mm 4 mps 752 mmHg 43%
    14:00 +20°C° 0 mm 3 mps 751 mmHg 43%
    15:00 +20°C° 0 mm 3 mps 751 mmHg 43%
    16:00 +20°C° 0 mm 3 mps 751 mmHg 42%
    17:00 +20°C° 0 mm 3 mps 751 mmHg 42%
    18:00 +19°C° 0 mm 2 mps 751 mmHg 46%
    19:00 +18°C° 0 mm 2 mps 751 mmHg 50%
    20:00 +18°C° 0 mm 1 mps 751 mmHg 54%
    21:00 +16°C° 0 mm 1 mps 751 mmHg 55%
    22:00 +15°C° 0 mm 1 mps 751 mmHg 55%
    23:00 +14°C° 0 mm 1 mps 751 mmHg 55%
    Show more